Find Starlink 34445

NORAD ID: 64457 Int'l Des: 2025-130 Owner: SPXS Country: US Constellation: starlink operational
LEOCIRCULAR

リアルタイム位置

3D地球を読み込み中...

Starlink 34445について

説明を読み込み中...

次回通過

Passes for default location (London). Set your location on the main map for personalized predictions.

高度履歴

Loading altitude history...

軌道要素

1 64457U 25130V 26134.23875027 .00011548 00000-0 35234-3 0 9996
2 64457 53.1576 143.7296 0001185 87.8574 272.2564 15.34403827 50742
Epoch: May 14, 2026 • Age: 8 hours

現在のステータス

高度 463.1 km
速度 7.64 km/s
衛星直下点 23.41°N, 142.05°W
打ち上げ日 Jun 18, 2025
運用期間 0.9 years
タイプ internet

技術仕様

分類 Payload
質量 575.00 kg
乾燥質量 530.00 kg
総質量 575.00 kg
長さ 0.30 m
直径 4.10 m
スパン 29.00 m
形状 Box + pan
製造者 SPXS
バスタイプ Starlink V2MO
フェーズステータス In Orbit
所有者/国 SPXS/US

Most Searched